• In Hungary
  • List of Countries
  • For 7 days
  • Water Temperature
  • Satellite Maps
  • Weather Map
  • News
  • Weather Widgets
  • user-avatar
    Login

    Hourly Weather Banja Luka

    Today, 20 October, Friday

    Time Temperature Precipitation Wind Pressure Humidity
    00:00 +12°C° 0 mm 1 mps 716 mmHg 73%
    01:00 +13°C° 0 mm 1 mps 716 mmHg 74%
    02:00 +12°C° 0 mm 1 mps 716 mmHg 76%
    03:00 +12°C° 0 mm 1 mps 716 mmHg 78%
    04:00 +12°C° 0 mm 1 mps 716 mmHg 80%
    05:00 +12°C° 0 mm 1 mps 716 mmHg 80%
    06:00 +12°C° 0 mm 1 mps 716 mmHg 80%
    07:00 +12°C° 0 mm 1 mps 717 mmHg 80%
    08:00 +15°C° 0 mm 1 mps 717 mmHg 70%
    09:00 +19°C° 0 mm 1 mps 718 mmHg 60%
    10:00 +22°C° 0 mm 1 mps 718 mmHg 50%
    11:00 +22°C° 0 mm 1 mps 718 mmHg 47%
    12:00 +23°C° 0 mm 1 mps 718 mmHg 44%
    13:00 +24°C° 0 mm 1 mps 718 mmHg 41%
    14:00 +23°C° 0 mm 1 mps 718 mmHg 46%
    15:00 +22°C° 0 mm 1 mps 717 mmHg 51%
    16:00 +21°C° 0 mm 1 mps 717 mmHg 56%
    17:00 +19°C° 0 mm 1 mps 717 mmHg 63%
    18:00 +16°C° 0 mm 1 mps 717 mmHg 70%
    19:00 +14°C° 0 mm 1 mps 717 mmHg 76%
    20:00 +14°C° 0 mm 1 mps 717 mmHg 79%
    21:00 +13°C° 0 mm 1 mps 718 mmHg 81%
    22:00 +13°C° 0 mm 1 mps 718 mmHg 84%
    23:00 +12°C° 0 mm 1 mps 718 mmHg 85%

    Tomorrow, 21 October, Saturday

    Time Temperature Precipitation Wind Pressure Humidity
    00:00 +12°C° 0 mm 1 mps 718 mmHg 87%
    01:00 +12°C° 0 mm 1 mps 718 mmHg 88%
    02:00 +11°C° 0 mm 1 mps 718 mmHg 88%
    03:00 +11°C° 0 mm 1 mps 718 mmHg 88%
    04:00 +11°C° 0 mm 1 mps 717 mmHg 87%
    05:00 +11°C° 0 mm 1 mps 718 mmHg 86%
    06:00 +11°C° 0 mm 1 mps 718 mmHg 84%
    07:00 +11°C° 0 mm 1 mps 718 mmHg 82%
    08:00 +14°C° 0 mm 1 mps 718 mmHg 71%
    09:00 +18°C° 0 mm 1 mps 719 mmHg 59%
    10:00 +21°C° 0 mm 1 mps 719 mmHg 48%
    11:00 +22°C° 0 mm 1 mps 719 mmHg 44%
    12:00 +22°C° 0 mm 1 mps 718 mmHg 41%
    13:00 +23°C° 0 mm 1 mps 718 mmHg 38%
    14:00 +22°C° 0 mm 1 mps 718 mmHg 43%
    15:00 +21°C° 0 mm 1 mps 717 mmHg 49%
    16:00 +20°C° 0 mm 1 mps 717 mmHg 55%
    17:00 +18°C° 0 mm 1 mps 717 mmHg 62%
    18:00 +15°C° 0 mm 1 mps 717 mmHg 68%
    19:00 +14°C° 0 mm 1 mps 717 mmHg 74%
    20:00 +13°C° 0 mm 1 mps 717 mmHg 76%
    21:00 +13°C° 0 mm 1 mps 717 mmHg 77%
    22:00 +13°C° 0 mm 1 mps 717 mmHg 79%
    23:00 +12°C° 0 mm 1 mps 716 mmHg 80%

    Day after tomorrow, 22 October, Sunday

    Time Temperature Precipitation Wind Pressure Humidity
    00:00 +12°C° 0 mm 1 mps 716 mmHg 81%
    01:00 +12°C° 0 mm 1 mps 716 mmHg 82%
    02:00 +12°C° 0 mm 1 mps 716 mmHg 82%
    03:00 +12°C° 0 mm 1 mps 715 mmHg 83%
    04:00 +11°C° 0 mm 1 mps 715 mmHg 83%
    05:00 +12°C° 0 mm 1 mps 715 mmHg 83%
    06:00 +12°C° 0 mm 1 mps 715 mmHg 82%
    07:00 +12°C° 0 mm 1 mps 715 mmHg 82%
    08:00 +15°C° 0 mm 1 mps 715 mmHg 74%
    09:00 +18°C° 0 mm 1 mps 715 mmHg 66%
    10:00 +21°C° 0 mm 1 mps 715 mmHg 57%
    11:00 +21°C° 0.1 mm 1 mps 715 mmHg 57%
    12:00 +21°C° 0.1 mm 1 mps 714 mmHg 57%
    13:00 +22°C° 0.1 mm 1 mps 714 mmHg 57%
    14:00 +20°C° 0.6 mm 1 mps 713 mmHg 65%
    15:00 +19°C° 0.6 mm 1 mps 713 mmHg 73%
    16:00 +18°C° 0.6 mm 1 mps 712 mmHg 80%
    17:00 +16°C° 1 mm 1 mps 712 mmHg 85%
    18:00 +15°C° 1 mm 2 mps 712 mmHg 89%
    19:00 +14°C° 1 mm 2 mps 712 mmHg 94%
    20:00 +13°C° 1.2 mm 2 mps 712 mmHg 95%
    21:00 +13°C° 1.2 mm 2 mps 712 mmHg 95%
    22:00 +12°C° 1.2 mm 2 mps 712 mmHg 96%
    23:00 +12°C° 1.3 mm 2 mps 711 mmHg 96%

    23 October, Monday

    Time Temperature Precipitation Wind Pressure Humidity
    00:00 +10°C° 1.3 mm 2 mps 711 mmHg 96%
    01:00 +10°C° 1.3 mm 2 mps 711 mmHg 95%
    02:00 +9°C° 1.5 mm 2 mps 711 mmHg 95%
    03:00 +9°C° 1.5 mm 2 mps 710 mmHg 95%
    04:00 +8°C° 1.5 mm 2 mps 710 mmHg 95%
    05:00 +8°C° 0.5 mm 2 mps 710 mmHg 94%
    06:00 +8°C° 0.5 mm 3 mps 711 mmHg 94%
    07:00 +7°C° 0.5 mm 3 mps 711 mmHg 94%
    08:00 +7°C° 0.3 mm 3 mps 711 mmHg 92%
    09:00 +7°C° 0.3 mm 3 mps 711 mmHg 90%
    10:00 +7°C° 0.3 mm 3 mps 711 mmHg 89%
    11:00 +7°C° 0.4 mm 3 mps 712 mmHg 88%
    12:00 +8°C° 0.4 mm 3 mps 712 mmHg 86%
    13:00 +8°C° 0.4 mm 3 mps 712 mmHg 85%
    14:00 +8°C° 0.2 mm 3 mps 712 mmHg 85%
    15:00 +8°C° 0.2 mm 3 mps 712 mmHg 85%
    16:00 +8°C° 0.2 mm 3 mps 712 mmHg 85%
    17:00 +7°C° 0.1 mm 3 mps 712 mmHg 88%
    18:00 +6°C° 0.1 mm 2 mps 712 mmHg 90%
    19:00 +6°C° 0.1 mm 2 mps 713 mmHg 92%
    20:00 +6°C° 0.1 mm 2 mps 713 mmHg 92%
    21:00 +6°C° 0.1 mm 2 mps 713 mmHg 92%
    22:00 +7°C° 0.1 mm 2 mps 713 mmHg 92%
    23:00 +6°C° 0.2 mm 2 mps 713 mmHg 92%

    24 October, Tuesday

    Time Temperature Precipitation Wind Pressure Humidity
    00:00 +6°C° 0.2 mm 2 mps 713 mmHg 93%
    01:00 +6°C° 0.2 mm 2 mps 713 mmHg 93%
    02:00 +6°C° 0.1 mm 2 mps 713 mmHg 93%
    03:00 +6°C° 0.1 mm 2 mps 713 mmHg 92%
    04:00 +5°C° 0.1 mm 3 mps 713 mmHg 92%
    05:00 +5°C° 0.2 mm 3 mps 713 mmHg 92%
    06:00 +5°C° 0.2 mm 3 mps 714 mmHg 91%
    07:00 +6°C° 0.2 mm 2 mps 714 mmHg 91%
    08:00 +7°C° 0.2 mm 3 mps 714 mmHg 88%
    09:00 +6°C° 0.2 mm 4 mps 714 mmHg 86%
    10:00 +7°C° 0.2 mm 4 mps 714 mmHg 83%
    11:00 +7°C° 0.1 mm 5 mps 714 mmHg 83%
    12:00 +7°C° 0.1 mm 5 mps 714 mmHg 83%
    13:00 +8°C° 0.1 mm 5 mps 714 mmHg 83%
    14:00 +8°C° 0.1 mm 5 mps 714 mmHg 83%
    15:00 +8°C° 0.1 mm 5 mps 715 mmHg 83%
    16:00 +8°C° 0.1 mm 5 mps 715 mmHg 83%
    17:00 +8°C° 0.1 mm 5 mps 715 mmHg 84%
    18:00 +7°C° 0.1 mm 5 mps 715 mmHg 86%
    19:00 +7°C° 0.1 mm 5 mps 716 mmHg 88%
    20:00 +6°C° 0 mm 5 mps 716 mmHg 89%
    21:00 +6°C° 0 mm 5 mps 716 mmHg 90%
    22:00 +6°C° 0 mm 5 mps 717 mmHg 91%
    23:00 +6°C° 0 mm 5 mps 717 mmHg 92%

    25 October, Wednesday

    Time Temperature Precipitation Wind Pressure Humidity
    00:00 +5°C° 0 mm 4 mps 717 mmHg 92%
    01:00 +5°C° 0 mm 4 mps 717 mmHg 93%
    02:00 +5°C° 0 mm 4 mps 717 mmHg 93%
    03:00 +5°C° 0 mm 4 mps 718 mmHg 93%
    04:00 +5°C° 0 mm 3 mps 718 mmHg 94%
    05:00 +5°C° 0 mm 3 mps 718 mmHg 94%
    06:00 +5°C° 0 mm 3 mps 719 mmHg 94%
    07:00 +5°C° 0 mm 2 mps 719 mmHg 94%
    08:00 +7°C° 0 mm 2 mps 719 mmHg 89%
    09:00 +8°C° 0 mm 2 mps 720 mmHg 85%
    10:00 +9°C° 0 mm 2 mps 720 mmHg 80%
    11:00 +10°C° 0 mm 2 mps 720 mmHg 77%
    12:00 +10°C° 0 mm 2 mps 720 mmHg 74%
    13:00 +12°C° 0 mm 2 mps 720 mmHg 72%
    14:00 +12°C° 0 mm 2 mps 721 mmHg 74%
    15:00 +10°C° 0 mm 2 mps 721 mmHg 76%
    16:00 +10°C° 0 mm 2 mps 721 mmHg 78%
    17:00 +10°C° 0 mm 1 mps 721 mmHg 82%
    18:00 +9°C° 0 mm 1 mps 721 mmHg 86%
    19:00 +8°C° 0 mm 1 mps 722 mmHg 90%
    20:00 +8°C° 0 mm 1 mps 722 mmHg 90%
    21:00 +8°C° 0 mm 1 mps 722 mmHg 91%
    22:00 +7°C° 0 mm 1 mps 722 mmHg 91%
    23:00 +7°C° 0 mm 1 mps 722 mmHg 92%
    Show more